Weather History for KCDJ - December, 2012

Change the Weather History Date:

Friday, December 7, 2012

  Actual Average (KIRK) Record (KIRK)
Temperature  
Mean Temperature 44 °F 31 °F  
Max Temperature 46 °F 39 °F - ()
Min Temperature 39 °F 22 °F - ()
Degree Days  
Heating Degree Days 22 34  
Month to date heating degree days 231  
Since 1 July heating degree days 1452  
Cooling Degree Days 0 0  
Month to date cooling degree days 0  
Year to date cooling degree days 939  
Moisture  
Dew Point 38 °F    
Average Humidity 83    
Maximum Humidity 93    
Minimum Humidity 76    
Precipitation  
Precipitation 0.02 in 0.06 in - ()
Month to date precipitation 0.46  
Year to date precipitation 38.02  
Sea Level Pressure  
Sea Level Pressure 29.94 in    
Wind  
Wind Speed 6 mph (NNE)    
Max Wind Speed 10 mph    
Max Gust Speed -    
T = Trace of Precipitation, MM = Missing Value Source: NWS Daily Summary

Daily Weather History Graph

Daily Weather History Graph

Search for Another Location

Airport or City:

Trip Planner

Search our weather history database for the weather conditions in past years. The results will help you decide how hot, cold, wet, or windy it might be!

Date:

Astronomy

Dec. 07, 2012 Rise Set
Actual Time 7:22 AM CST 4:49 PM CST
Civil Twilight 6:52 AM CST 5:19 PM CST
Nautical Twilight 6:18 AM CST 5:53 PM CST
Astronomical Twilight 5:45 AM CST 6:26 PM CST
Moon 12:43 AM CST (12/7) 12:46 PM CST (12/7)
Length of Visible Light 10h 27m
Length of Day
9h 26m
Last Quarter, 38% of the Moon is Illuminated
Dec 7
Last Quarter
Dec 13
New
Dec 19
First Quarter
Dec 28
Full
Jan 4
Last Quarter

Hourly Weather History & Observations

Time (CST) Temp. Windchill Dew Point Humidity Pressure Visibility Wind Dir Wind Speed Gust Speed Precip Events Conditions
12:52 AM 46.0 °F 41.0 °F 39.9 °F 79% 29.94 in - NNE 10.4 mph - N/A   Unknown
1:52 AM 45.0 °F 40.1 °F 39.9 °F 82% 29.94 in - NNE 9.2 mph - N/A   Unknown
2:52 AM 45.0 °F 41.2 °F 39.9 °F 82% 29.94 in - North 6.9 mph - N/A   Unknown
3:52 AM 43.0 °F 38.2 °F 39.9 °F 89% 29.94 in - NNE 8.1 mph - N/A   Unknown
4:52 AM 43.0 °F 40.3 °F 39.9 °F 89% 29.94 in - North 4.6 mph - N/A   Unknown
5:52 AM 42.1 °F 40.2 °F 39.0 °F 89% 29.94 in - North 3.5 mph - N/A   Unknown
6:52 AM 42.1 °F 39.2 °F 39.0 °F 89% 29.94 in - North 4.6 mph - N/A   Unknown
7:52 AM 42.1 °F 39.2 °F 37.9 °F 85% 29.94 in - North 4.6 mph - N/A   Unknown
8:52 AM 43.0 °F 39.5 °F 37.9 °F 82% 29.95 in - NNE 5.8 mph - N/A   Unknown
9:52 AM 43.0 °F 39.5 °F 37.9 °F 82% 29.96 in - NNE 5.8 mph - N/A   Unknown
10:52 AM 45.0 °F 41.8 °F 39.0 °F 80% 29.95 in - NNE 5.8 mph - N/A   Unknown
11:52 AM 45.0 °F 41.2 °F 37.9 °F 76% 29.92 in - NE 6.9 mph - N/A   Unknown
12:52 PM 45.0 °F 42.6 °F 37.9 °F 76% 29.91 in - NE 4.6 mph - N/A   Unknown
1:52 PM 45.0 °F 41.8 °F 37.9 °F 76% 29.88 in - NE 5.8 mph - N/A   Unknown
2:52 PM 45.0 °F 42.6 °F 39.0 °F 80% 29.89 in - NNE 4.6 mph - N/A   Unknown
3:52 PM 44.1 °F 40.8 °F 37.0 °F 76% 29.91 in - North 5.8 mph - N/A   Unknown
4:52 PM 44.1 °F 42.5 °F 37.0 °F 76% 29.92 in - NNE 3.5 mph - N/A   Unknown
5:52 PM 43.0 °F 39.5 °F 37.0 °F 80% 29.93 in - North 5.8 mph - N/A   Unknown
6:52 PM 43.0 °F 40.3 °F 37.0 °F 80% 29.94 in - NNE 4.6 mph - N/A   Unknown
7:52 PM 42.1 °F 39.2 °F 37.0 °F 82% 29.94 in - NNE 4.6 mph - N/A   Unknown
8:52 PM 41.0 °F 39.0 °F 37.9 °F 89% 29.94 in - ENE 3.5 mph - 0.01 in   Unknown
9:52 PM 41.0 °F - 37.9 °F 89% 29.95 in - Calm Calm - 0.01 in   Unknown
10:52 PM 41.0 °F 38.0 °F 37.9 °F 89% 29.96 in - NNW 4.6 mph - N/A   Unknown
11:52 PM 39.9 °F 37.8 °F 37.9 °F 93% 29.98 in - NNW 3.5 mph - N/A   Unknown